Location: Cheyres
(46.8153°N, 6.7877°E)
Time: 13:50:28
(UTC+00:00)

Cosmos 158 Rocket - Pass Details

Date: 11 May 2021
Orbit: 699 x 793 km, 74.0° (Epoch: 19 June)

Event Time Altitude Azimuth Distance (km) Brightness Sun altitude
Rises 21:38:15 0° 334° (NNW) 3,093 8.8 -20.4°
Reaches altitude 10° 21:40:36 10° 329° (NNW) 2,172 7.5 -20.6°
Maximum altitude 21:45:20 53° 254° (WSW) 865 4.3 -21.0°
Enters shadow 21:46:50 38° 202° (SSW) 1,072 4.4 -21.1°
